Tracking 31027 objects as of 19-Jul-2025
HD Live streaming from Space Station
objects crossing your sky now

IRIDIUM 33 DEB

Track IRIDIUM 33 DEB now!
10-day predictions


NORAD ID: 34366
Int'l Code: 1997-051FJ
Perigee: 712.4 km
Apogee: 739.1 km
Inclination: 86.4 °
Period: 99.2 minutes
Semi major axis: 7096 km
RCS: 0.0424 m2 (small)
Launch date: September 14, 1997
Source: United States (US)
Launch site: TYURATAM MISSILE AND SPACE COMPLEX (TTMTR)

Note: This is SATELLITE DEBRIS
Your satellite tracking list
STARLINK-6351
Track 1 satellite(s)




NASA's NSSDC Master Catalog

Two Line Element Set (TLE):
1 34366U 97051FJ  25199.24581670  .00003001  00000-0  73411-3 0  9996
2 34366  86.3713 113.3590 0018819 280.9731 232.4678 14.52157969860400
Source of the keplerian elements: AFSPC